Weather History for Reno - Stead, NV

Change the Weather History Date:

Wednesday, September 25, 2013

  Actual Average (KRNO) Record (KRNO)
Temperature  
Mean Temperature 43 °F 62 °F  
Max Temperature 51 °F 79 °F 94 °F (1964)
Min Temperature 35 °F 46 °F 25 °F (1972)
Degree Days  
Heating Degree Days 22 4  
Month to date heating degree days 55  
Since 1 July heating degree days 65  
Cooling Degree Days 0 1  
Month to date cooling degree days 82  
Year to date cooling degree days 828  
Moisture  
Dew Point 30 °F    
Average Humidity 63    
Maximum Humidity 87    
Minimum Humidity 28    
Precipitation  
Precipitation 0.02 in 0.02 in 0.33 in (1939)
Month to date precipitation 0.27  
Year to date precipitation 4.96  
Snow  
Snow 0.00 in 0.00 in 0.00 in ()
Month to date snowfall 0.0  
Since 1 July snowfall 0.0  
Since 1 September snowfall 0.0  
Snow Depth -    
Sea Level Pressure  
Sea Level Pressure 29.86 in    
Wind  
Wind Speed 13 mph (NW)    
Max Wind Speed 29 mph    
Max Gust Speed 37 mph    
Visibility 10 miles    
Events Rain    
T = Trace of Precipitation, MM = Missing Value Source: NWS Daily Summary

Daily Weather History Graph

Daily Weather History Graph

Search for Another Location

Airport:

Trip Planner

Search our weather history database for the weather conditions in past years. The results will help you decide how hot, cold, wet, or windy it might be!

Date:

Astronomy

Sep. 25, 2013 Rise Set
Actual Time 6:50 AM PDT 6:51 PM PDT
Civil Twilight 6:23 AM PDT 7:17 PM PDT
Nautical Twilight 5:52 AM PDT 7:49 PM PDT
Astronomical Twilight 5:20 AM PDT 8:21 PM PDT
Moon 11:02 PM PDT (9/25) 12:59 PM PDT (9/25)
Length of Visible Light 12h 54m
Length of Day
12h 00m
Waning Gibbous, 63% of the Moon is Illuminated
Sep 25
Waning Gibbous
Sep 26
Last Quarter
Oct 4
New
Oct 11
First Quarter
Oct 18
Full

Hourly Weather History & Observations

Time (PDT) Temp. Windchill Dew Point Humidity Pressure Visibility Wind Dir Wind Speed Gust Speed Precip Events Conditions
12:15 AM 50.0 °F - 30.2 °F 47% 29.85 in 10.0 mi West 18.4 mph 26.5 mph N/A   Partly Cloudy
12:35 AM 44.6 °F 36.9 °F 35.6 °F 71% 29.86 in 10.0 mi NW 18.4 mph 26.5 mph N/A   Partly Cloudy
12:55 AM 44.6 °F 36.9 °F 35.6 °F 71% 29.85 in 10.0 mi NW 18.4 mph 25.3 mph N/A   Partly Cloudy
1:15 AM 44.6 °F 37.2 °F 35.6 °F 71% 29.85 in 10.0 mi NW 17.3 mph 21.9 mph N/A   Clear
1:35 AM 44.6 °F 37.8 °F 33.8 °F 66% 29.85 in 10.0 mi WNW 15.0 mph 21.9 mph N/A   Clear
1:55 AM 44.6 °F 37.4 °F 35.6 °F 71% 29.85 in 10.0 mi WNW 16.1 mph 21.9 mph N/A   Clear
2:15 AM 44.6 °F 37.4 °F 35.6 °F 71% 29.84 in 10.0 mi WNW 16.1 mph - N/A   Clear
2:35 AM 44.6 °F 37.8 °F 35.6 °F 71% 29.83 in 10.0 mi WNW 15.0 mph - N/A   Clear
2:55 AM 44.6 °F 37.8 °F 33.8 °F 66% 29.83 in 10.0 mi WNW 15.0 mph - N/A   Clear
3:15 AM 44.6 °F 38.8 °F 33.8 °F 66% 29.83 in 10.0 mi West 11.5 mph - N/A   Partly Cloudy
3:35 AM 44.6 °F 38.4 °F 32.0 °F 61% 29.83 in 10.0 mi WNW 12.7 mph - N/A   Clear
3:55 AM 44.6 °F 38.8 °F 32.0 °F 61% 29.83 in 10.0 mi West 11.5 mph - N/A   Clear
4:15 AM 44.6 °F 43.1 °F 32.0 °F 61% 29.83 in 10.0 mi SSE 3.5 mph - N/A   Clear
4:35 AM 42.8 °F 41.1 °F 32.0 °F 66% 29.83 in 10.0 mi ENE 3.5 mph - N/A   Clear
4:55 AM 42.8 °F 40.1 °F 32.0 °F 66% 29.83 in 10.0 mi ENE 4.6 mph - N/A   Partly Cloudy
5:15 AM 41.0 °F 37.1 °F 32.0 °F 70% 29.84 in 10.0 mi NW 5.8 mph - N/A   Scattered Clouds
5:35 AM 41.0 °F 35.8 °F 32.0 °F 70% 29.84 in 10.0 mi NNW 8.1 mph - N/A   Partly Cloudy
5:55 AM 39.2 °F 34.2 °F 32.0 °F 75% 29.85 in 10.0 mi NW 6.9 mph - N/A   Clear
6:15 AM 39.2 °F 34.2 °F 32.0 °F 75% 29.85 in 10.0 mi NW 6.9 mph - N/A   Clear
6:35 AM 39.2 °F 34.2 °F 32.0 °F 75% 29.85 in 10.0 mi NW 6.9 mph - N/A   Clear
6:55 AM 39.2 °F 34.2 °F 32.0 °F 75% 29.85 in 10.0 mi NW 6.9 mph - N/A   Clear
7:15 AM 39.2 °F 33.0 °F 32.0 °F 75% 29.85 in 10.0 mi NW 9.2 mph - N/A   Clear
7:35 AM 41.0 °F 36.4 °F 30.2 °F 65% 29.86 in 10.0 mi WNW 6.9 mph - N/A   Partly Cloudy
7:55 AM 42.8 °F 35.4 °F 30.2 °F 61% 29.87 in 10.0 mi NW 15.0 mph - N/A   Partly Cloudy
8:15 AM 44.6 °F 38.4 °F 28.4 °F 53% 29.87 in 10.0 mi NW 12.7 mph - N/A   Clear
8:35 AM 44.6 °F 37.8 °F 28.4 °F 53% 29.87 in 10.0 mi NW 15.0 mph 18.4 mph N/A   Clear
8:55 AM 46.4 °F 40.1 °F 26.6 °F 46% 29.87 in 10.0 mi WNW 15.0 mph - N/A   Clear
9:15 AM 44.6 °F 36.9 °F 26.6 °F 49% 29.88 in 10.0 mi NW 18.4 mph 23.0 mph N/A   Clear
9:35 AM 46.4 °F 39.2 °F 24.8 °F 43% 29.88 in 10.0 mi NW 18.4 mph 27.6 mph N/A   Partly Cloudy
9:55 AM 46.4 °F 40.1 °F 26.6 °F 46% 29.88 in 10.0 mi NNW 15.0 mph 23.0 mph N/A   Clear
10:15 AM 48.2 °F - 26.6 °F 43% 29.87 in 10.0 mi NNW 15.0 mph 21.9 mph N/A   Clear
10:35 AM 48.2 °F - 26.6 °F 43% 29.87 in 10.0 mi NW 15.0 mph 20.7 mph N/A   Clear
10:55 AM 48.2 °F - 26.6 °F 43% 29.87 in 10.0 mi NNW 15.0 mph 27.6 mph N/A   Scattered Clouds
11:15 AM 50.0 °F - 24.8 °F 37% 29.87 in 10.0 mi North 11.5 mph 24.2 mph N/A   Mostly Cloudy
11:35 AM 50.0 °F - 24.8 °F 37% 29.86 in 10.0 mi NNW 15.0 mph 21.9 mph N/A   Partly Cloudy
11:55 AM 50.0 °F - 19.4 °F 30% 29.86 in 10.0 mi WNW 13.8 mph 19.6 mph N/A   Partly Cloudy
12:15 PM 51.8 °F - 21.2 °F 30% 29.85 in 10.0 mi NW 17.3 mph 23.0 mph N/A   Partly Cloudy
12:35 PM 51.8 °F - 19.4 °F 28% 29.84 in 10.0 mi North 15.0 mph 23.0 mph N/A   Clear
12:55 PM 48.2 °F - 26.6 °F 43% 29.85 in 10.0 mi North 17.3 mph - N/A   Mostly Cloudy
1:15 PM 50.0 °F - 19.4 °F 30% 29.85 in 10.0 mi West 10.4 mph 19.6 mph N/A   Mostly Cloudy
1:35 PM 50.0 °F - 17.6 °F 28% 29.84 in 10.0 mi NW 15.0 mph 21.9 mph N/A   Partly Cloudy
1:55 PM 50.0 °F - 24.8 °F 37% 29.84 in 10.0 mi NW 12.7 mph 18.4 mph N/A   Mostly Cloudy
2:15 PM 50.0 °F - 24.8 °F 37% 29.84 in 10.0 mi North 12.7 mph 19.6 mph N/A   Mostly Cloudy
2:35 PM 50.0 °F - 19.4 °F 30% 29.85 in 10.0 mi WSW 13.8 mph 18.4 mph N/A   Mostly Cloudy
2:55 PM 48.2 °F - 24.8 °F 40% 29.84 in 10.0 mi SW 12.7 mph 21.9 mph N/A   Partly Cloudy
3:15 PM 50.0 °F - 26.6 °F 40% 29.85 in 10.0 mi West 17.3 mph 20.7 mph N/A   Scattered Clouds
3:35 PM 50.0 °F - 24.8 °F 37% 29.86 in 10.0 mi West 11.5 mph 21.9 mph N/A   Mostly Cloudy
3:55 PM 46.4 °F 40.4 °F 26.6 °F 46% 29.85 in 10.0 mi North 13.8 mph - N/A   Overcast
4:15 PM 44.6 °F 34.9 °F 30.2 °F 57% 29.86 in 10.0 mi NNW 28.8 mph 36.8 mph N/A   Mostly Cloudy
4:35 PM 39.2 °F 28.7 °F 35.6 °F 87% 29.88 in 3.0 mi North 23.0 mph 28.8 mph N/A Rain Rain
4:55 PM 39.2 °F 29.8 °F 35.6 °F 87% 29.88 in 10.0 mi North 18.4 mph - N/A   Clear
5:15 PM 39.2 °F 32.5 °F 35.6 °F 87% 29.89 in 10.0 mi NNW 10.4 mph - N/A   Partly Cloudy
5:35 PM 39.2 °F 32.5 °F 35.6 °F 87% 29.90 in 10.0 mi NW 10.4 mph - N/A Rain Light Rain
5:55 PM 39.2 °F 33.0 °F 33.8 °F 81% 29.90 in 7.0 mi WNW 9.2 mph 16.1 mph 0.01 in Rain Light Rain
6:15 PM 37.4 °F 32.1 °F 32.0 °F 81% 29.90 in 9.0 mi WSW 6.9 mph - N/A Rain Light Rain
6:35 PM 37.4 °F 30.3 °F 33.8 °F 87% 29.89 in 10.0 mi West 10.4 mph - N/A   Mostly Cloudy
6:55 PM 37.4 °F 28.5 °F 33.8 °F 87% 29.88 in 10.0 mi West 15.0 mph 19.6 mph 0.01 in Rain Light Rain
7:15 PM 37.4 °F 30.8 °F 32.0 °F 81% 29.88 in 10.0 mi West 9.2 mph - N/A   Overcast
7:35 PM 37.4 °F 32.8 °F 32.0 °F 81% 29.88 in 10.0 mi WNW 5.8 mph - N/A   Mostly Cloudy
7:50 PM 37.4 °F 28.5 °F 32.0 °F 81% 29.87 in 10.0 mi WSW 15.0 mph 19.6 mph N/A   Mostly Cloudy
8:15 PM 37.4 °F 30.3 °F 32.0 °F 81% 29.88 in 10.0 mi WNW 10.4 mph - N/A   Overcast
8:35 PM 37.4 °F 31.4 °F 32.0 °F 81% 29.88 in 10.0 mi West 8.1 mph - N/A   Mostly Cloudy
8:50 PM 37.4 °F 32.1 °F 32.0 °F 81% 29.88 in 10.0 mi WNW 6.9 mph - N/A   Mostly Cloudy
9:15 PM 37.4 °F 33.8 °F 32.0 °F 81% 29.89 in 10.0 mi NW 4.6 mph - N/A   Overcast
9:35 PM 37.4 °F 34.9 °F 32.0 °F 81% 29.89 in 10.0 mi WNW 3.5 mph - N/A   Overcast
9:55 PM 37.4 °F 32.8 °F 32.0 °F 81% 29.89 in 10.0 mi West 5.8 mph - N/A   Overcast
10:15 PM 37.4 °F 31.4 °F 32.0 °F 81% 29.90 in 10.0 mi WNW 8.1 mph - N/A   Overcast
10:35 PM 35.6 °F 28.0 °F 32.0 °F 87% 29.89 in 10.0 mi WNW 10.4 mph - N/A   Mostly Cloudy
10:55 PM 37.4 °F 32.1 °F 32.0 °F 81% 29.89 in 10.0 mi WNW 6.9 mph - N/A   Overcast
11:15 PM 35.6 °F 28.6 °F 32.0 °F 87% 29.90 in 10.0 mi NW 9.2 mph - N/A   Overcast
11:35 PM 37.4 °F 30.8 °F 32.0 °F 81% 29.90 in 10.0 mi NW 9.2 mph - N/A   Overcast
11:55 PM 35.6 °F 29.9 °F 32.0 °F 87% 29.91 in 10.0 mi NW 6.9 mph - N/A   Mostly Cloudy